Airfield :
LOGIN :

Register | Disclaimer

   EN    FR    IT 

 










Legend :    VFR   Marginal VFR   IFR   Intensive IFR   Very Intensive IFR
Visi :
Ceiling :
>= 8 km
>= 3000ft
5 to 8 km
1000 to 3000 ft
1500m to 5 km
500 to 1000 ft
800 to 1500m
200 to 500 ft
< 800m
< 200 ft
Symbols :   Thunderstorms  Fog  Heavy snow  Heavy precipitations  Wind > 20 kt
SIGMETs :     Misc.  Thunderstorms  Icing  Turbulence  Mountain Waves  Volcanic Ashes







- Airport Elevation : 34 ft
- IATA code : BLK
- Download approach charts


EGNH - Blackpool

CURRENT METAR :
  • 200720Z 27010KT 9999 FEW022 15/10 Q1021

EXPIRED METARs :
  • 200650Z 27011KT 9999 FEW021 15/10 Q1021
  • 200620Z 28010KT 9999 FEW022 15/09 Q1020
  • 200550Z 29009KT 9999 FEW023 14/10 Q1020
  • 200520Z 28011KT 9999 FEW020 14/10 Q1020

TAF TAF EGNH
Valid from the 20 at 06:00 until the 20 at 15:00 UTC


200609Z 2006/2015 27010KT 9999 SCT030
BECMG 2009/2012 VRB05KT
ATIS : +44 1253 343 434 (x8315)
No reported NOTAMs for that airfield.



MET'MAP, your aeronautical weather chart ! - Copyright ORBIFLY December 2007 - Disclaimer

ORBIFLY MET'MAP TEAM :

Programming & Development : Alexandra Zaïnal
Concept & Development : Baudouin d'Aumeries
Co-Development & Prog : Marc-Olivier Méhu
Technical & hardware support : Manuel Goepfert

Contact : metmap@orbifly.com




SOURCES & CREDITS :

   NOAA